Home > Weather > Lanzhou > Past weeks

Flag for China Past Weather in Lanzhou, Gansu, China — Yesterday and Last 2 Weeks

Now
54 °F

Light rain. Overcast.


Feels Like: 52 °F
Forecast: 54 / 61 °F
Wind: 6 mph from Northeast

Location: Lanzhou / Zhongchuan

Current Time: Aug 25, 2016 at 5:49:38 AM

Latest Report: Aug 25, 2016 at 5:00 AM


Visibility: N/A

Pressure: 30.30 "Hg (25.18 "Hg at 1543m altitude)

Humidity: 94%

Dew Point: 52 °F

Location of LanzhouLocation

Past Weather in Lanzhou — Graph

°F

Lanzhou Temperature Yesterday

Maximum temperature yesterday: 66 °F (at 9:00 AM)
Minimum temperature yesterday: 59 °F (at 10:00 PM)
Average temperature yesterday: 64 °F

High & Low Weather Summary for the Past Weeks

 TemperatureHumidityPressure
High88 °F (Aug 17, 5:00 PM)100% (Aug 15, 4:00 AM)30.30 "Hg (Aug 15, 4:00 AM)
Low54 °F (Aug 25, 4:00 AM)30% (Aug 10, 5:00 PM)29.68 "Hg (Aug 17, 4:00 PM)
Average71 °F67%29.99 "Hg
* Reported Aug 10 4:00 AM — Aug 25 4:00 AM, Lanzhou, Weather by CustomWeather, © 2016

Note: Actual official high and low records may vary slightly from our data, if they occured in-between our weather recording intervals... More about our weather records

Advertising

Lanzhou Weather History for the Previous 24 Hours

Scroll right to see more
 ConditionsComfort  
Time TempWeatherWind HumidityBarometerVisibility
4:00 AM
Thu, Aug 25
54 °FLight rain. Overcast.3 mph94%30.30 "HgN/A
3:00 AM55 °FLight rain. Overcast.1 mph88%30.27 "HgN/A
2:00 AM57 °FLight rain. Overcast.1 mph82%30.27 "HgN/A
1:00 AM57 °FOvercast.6 mph77%30.27 "HgN/A
12:00 AM59 °FOvercast.13 mph72%30.27 "HgN/A
11:00 PM
Wed, Aug 24
59 °FOvercast.10 mph72%30.24 "HgN/A
10:00 PM59 °FLight rain. Overcast.13 mph72%30.24 "HgN/A
9:00 PM61 °FLight rain. Overcast.13 mph68%30.21 "HgN/A
8:00 PM61 °FOvercast.17 mph68%30.15 "HgN/A
7:00 PM63 °FOvercast.20 mph68%30.12 "HgN/A
6:00 PM63 °FMore clouds than sun.15 mph73%30.09 "HgN/A
5:00 PM63 °FMore clouds than sun.13 mph83%30.09 "HgN/A
4:00 PM64 °FLight rain. More clouds than sun.10 mph94%30.07 "Hg5 mi
3:00 PM64 °FRain. Fog.6 mph94%30.07 "Hg2 mi
2:00 PM64 °FLight rain. More clouds than sun.8 mph94%30.07 "Hg5 mi
1:00 PM64 °FLight rain. More clouds than sun.6 mph94%30.07 "HgN/A
12:00 PM66 °FHeavy rain. More clouds than sun.6 mph88%30.07 "Hg1 mi
11:00 AM66 °FOvercast.3 mph83%30.07 "HgN/A
10:00 AM66 °FLight rain. Overcast.1 mph83%30.07 "HgN/A
9:00 AM66 °FOvercast.3 mph83%30.07 "HgN/A
8:00 AM64 °FOvercast.1 mph88%30.07 "HgN/A
7:00 AM64 °FOvercast.1 mph88%30.04 "HgN/A
6:00 AM64 °FOvercast.1 mph88%30.04 "HgN/A
5:00 AM64 °FOvercast.1 mph88%30.04 "HgN/A
Weather by CustomWeather, © 2016

See weather overviewHow to use our weather pages